Flag for U.S.A. Weather past 2 weeks in Furnace Creek (Death Valley), California, U.S.A.

46 °F

Passing clouds.

Feels Like: 38 °F
Forecast: 45 / 62 °F
Wind: 21 mph from Southwest

Location: Desert Rock Airport

Current Time: Nov 25, 2015 at 7:13:44 AM

Latest Report: Nov 25, 2015 at 6:53 AM

Visibility: 10 mi

Pressure: 29.57 "Hg

Humidity: 44%

Dew point: 25 °F

Location of Furnace Creek (Death Valley)Location

Historic Weather in Furnace Creek (Death Valley) — Graph


Furnace Creek (Death Valley) temperature yesterday

Maximum temperature yesterday: 68 °F (at 12:53 PM)
Minimum temperature yesterday: 35 °F (at 5:53 AM)
Average temperature yesterday: 53 °F

Past Weeks' High & Low Weather Summary

High73 °F (Nov 20, 1:53 PM)86% (Nov 10, 7:01 AM)30.34 "Hg (Nov 10, 7:01 AM)
Low32 °F (Nov 11, 5:53 AM)9% (Nov 21, 1:53 PM)29.46 "Hg (Nov 24, 11:53 PM)
Average49 °F35%30.01 "Hg
* Reported Nov 10 6:03 AM — Nov 25 5:53 AM, Furnace Creek (Death Valley), Weather by CustomWeather, © 2015

Note: Actual official high and low records may vary slightly from our data, if they occured in-between our weather recording intervals... More about our weather records


Furnace Creek (Death Valley) weather history for previous 24 hours

Time TempWeatherWind HumidityBarometerVisibility
5:53 AM
Wed, Nov 25
47 °FClear.20 mph44%29.54 "Hg10 mi
4:53 AM48 °FClear.29 mph50%29.54 "Hg10 mi
3:53 AM49 °FPassing clouds.24 mph52%29.49 "Hg10 mi
2:53 AM50 °FPassing clouds.29 mph54%29.49 "Hg10 mi
1:53 AM51 °FClear.30 mph50%29.49 "Hg10 mi
12:53 AM52 °FClear.35 mph47%29.48 "Hg10 mi
11:53 PM
Tue, Nov 24
54 °FClear.29 mph37%29.46 "Hg10 mi
10:53 PM55 °FCool.37 mph33%29.49 "Hg10 mi
8:53 PM58 °FRefreshingly cool.33 mph26%29.50 "Hg10 mi
7:53 PM59 °FClear.35 mph23%29.50 "Hg10 mi
6:53 PM60 °FClear.28 mph19%29.54 "Hg10 mi
5:53 PM60 °FClear.28 mph20%29.55 "Hg10 mi
4:53 PM62 °FClear.24 mph18%29.57 "Hg10 mi
3:53 PM64 °FSunny.30 mph15%29.57 "Hg10 mi
2:53 PM65 °FSunny.38 mph14%29.58 "Hg10 mi
1:53 PM66 °FSunny.31 mph13%29.59 "Hg10 mi
12:53 PM68 °FSunny.23 mph12%29.63 "Hg10 mi
11:53 AM67 °FSunny.26 mph13%29.69 "Hg10 mi
10:53 AM65 °FSunny.26 mph16%29.74 "Hg10 mi
9:53 AM63 °FSunny.25 mph18%29.77 "Hg10 mi
8:53 AM53 °FSunny.8 mph26%29.80 "Hg10 mi
7:53 AM45 °FSunny.No wind37%29.82 "Hg10 mi
Weather by CustomWeather, © 2015

See weather overviewHow to use our weather pages